Tucson, AZ

4:59 AM MST on February 06, 2016 (GMT -0700)
Davis-Monthan Air Force Base

Weather History for KDMA - March, 2014

Change the Weather History Date:

Monday, March 31, 2014

  Actual Average Record
Temperature  
Mean Temperature 64 °F -  
Max Temperature 80 °F 77 °F 91 °F (1969)
Min Temperature 47 °F 47 °F 35 °F (1972)
Degree Days  
Heating Degree Days 2    
Growing Degree Days 14 (Base 50)    
Moisture  
Dew Point 18 °F    
Average Humidity 19    
Maximum Humidity 38    
Minimum Humidity 7    
Precipitation  
Precipitation 0.00 in - - ()
Sea Level Pressure  
Sea Level Pressure 29.89 in    
Wind  
Wind Speed 6 mph (SSW)    
Max Wind Speed 14 mph    
Max Gust Speed 24 mph    
Visibility 10 miles    
Events      
Averages and records for this station are not official NWS values.
T = Trace of Precipitation, MM = Missing Value Source: NWS Daily Summary

Daily Weather History Graph

Daily Weather History Graph

Search for Another Location

Airport or City:

Trip Planner

Search our weather history database for the weather conditions in past years. The results will help you decide how hot, cold, wet, or windy it might be!

Date:

Astronomy

Mar. 31, 2014 Rise Set
Actual Time 6:12 AM MST 6:42 PM MST
Civil Twilight 5:48 AM MST 7:07 PM MST
Nautical Twilight 5:19 AM MST 7:36 PM MST
Astronomical Twilight 4:50 AM MST 8:05 PM MST
Moon 6:42 AM MST (3/31) 7:59 PM MST (3/31)
Length of Visible Light 13h 18m
Length of Day
12h 29m
New Moon, 1% of the Moon is Illuminated
Mar 31
New Moon
Apr 7
First Quarter
Apr 15
Full
Apr 22
Last Quarter
Apr 28
New

Hourly Weather History & Observations

Time (MST) Temp. Dew Point Humidity Pressure Visibility Wind Dir Wind Speed Gust Speed Precip Events Conditions
12:58 AM 52.3 °F 22.1 °F 31% 29.88 in 10.0 mi South 6.9 mph - N/A   Clear
1:58 AM 50.5 °F 22.6 °F 34% 29.89 in 10.0 mi South 4.6 mph - N/A   Clear
2:58 AM 50.4 °F 22.6 °F 34% 29.89 in 10.0 mi SSE 5.8 mph - N/A   Clear
3:58 AM 48.6 °F 23.0 °F 37% 29.90 in 10.0 mi SSE 5.8 mph - N/A   Clear
4:58 AM 49.8 °F 23.4 °F 36% 29.90 in 10.0 mi SSE 9.2 mph - N/A   Clear
5:58 AM 47.5 °F 23.2 °F 38% 29.92 in 10.0 mi SE 9.2 mph - N/A   Clear
6:58 AM 48.7 °F 23.0 °F 36% 29.93 in 10.0 mi SSE 5.8 mph - N/A   Clear
7:58 AM 57.6 °F 24.1 °F 28% 29.95 in 10.0 mi SE 4.6 mph - N/A   Clear
8:58 AM 65.7 °F 22.8 °F 20% 29.96 in 10.0 mi SSE 8.1 mph - N/A   Clear
9:58 AM 69.1 °F 19.9 °F 15% 29.96 in 10.0 mi Variable 2.3 mph - N/A   Clear
10:58 AM 71.6 °F 18.7 °F 13% 29.95 in 10.0 mi Variable 4.6 mph - N/A   Clear
11:58 AM 73.9 °F 17.8 °F 12% 29.93 in 10.0 mi NNW 5.8 mph - N/A   Clear
12:58 PM 75.9 °F 18.7 °F 12% 29.91 in 10.0 mi Calm Calm - N/A   Clear
1:58 PM 76.8 °F 19.0 °F 11% 29.87 in 10.0 mi Variable 3.5 mph - N/A   Clear
2:58 PM 80.4 °F 11.3 °F 7% 29.83 in 10.0 mi West 10.4 mph 17.3 mph N/A   Clear
3:58 PM 80.6 °F 14.5 °F 8% 29.82 in 10.0 mi West 10.4 mph - N/A   Clear
4:58 PM 80.2 °F 11.3 °F 7% 29.81 in 10.0 mi West 13.8 mph 24.2 mph N/A   Clear
5:58 PM 79.2 °F 10.2 °F 7% 29.82 in 10.0 mi West 10.4 mph 17.3 mph N/A   Clear
6:58 PM 75.4 °F 15.4 °F 10% 29.83 in 10.0 mi WSW 8.1 mph - N/A   Clear
7:58 PM 70.2 °F 15.6 °F 12% 29.85 in 10.0 mi WSW 5.8 mph - N/A   Clear
8:43 PM 66.2 °F 14.0 °F 13% 29.94 in 6.0 mi WSW 2.3 mph - N/A   Haze
8:53 PM 66.2 °F 14.0 °F 13% 29.95 in 8.0 mi Calm Calm - N/A   Clear
8:58 PM 66.6 °F 14.5 °F 13% 29.86 in 10.0 mi NW 1.2 mph - N/A   Clear
9:58 PM 66.2 °F 14.9 °F 14% 29.86 in 10.0 mi South 5.8 mph - N/A   Clear
10:58 PM 63.3 °F 18.9 °F 18% 29.86 in 10.0 mi South 10.4 mph - N/A   Clear
11:58 PM 59.5 °F 21.0 °F 23% 29.87 in 10.0 mi South 6.9 mph - N/A   Clear